• In Belarus
  • List of Countries
  • For 7 days
  • Water Temperature
  • Satellite Maps
  • Weather Map
  • Weather Widgets
  • user-avatar
    Login

    Hourly Weather Bulle

    Today, 23 February, Friday

    Time Temperature Precipitation Wind Pressure Humidity
    00:00 -8°C° 0 mm 3 mps 684 mmHg 88%
    01:00 -8°C° 0 mm 3 mps 684 mmHg 87%
    02:00 -8°C° 0 mm 3 mps 684 mmHg 86%
    03:00 -8°C° 0 mm 3 mps 684 mmHg 86%
    04:00 -8°C° 0 mm 3 mps 684 mmHg 85%
    05:00 -7°C° 0 mm 2 mps 683 mmHg 85%
    06:00 -7°C° 0 mm 2 mps 683 mmHg 85%
    07:00 -6°C° 0 mm 3 mps 683 mmHg 82%
    08:00 -5°C° 0 mm 3 mps 684 mmHg 80%
    09:00 -2°C° 0 mm 3 mps 684 mmHg 78%
    10:00 -1°C° 0 mm 3 mps 684 mmHg 77%
    11:00 0°C° 0 mm 3 mps 684 mmHg 77%
    12:00 0°C° 0 mm 3 mps 684 mmHg 77%
    13:00 0°C° 0.1 mm 3 mps 684 mmHg 78%
    14:00 0°C° 0.1 mm 3 mps 684 mmHg 79%
    15:00 0°C° 0.1 mm 3 mps 684 mmHg 81%
    16:00 -1°C° 0 mm 3 mps 684 mmHg 84%
    17:00 -2°C° 0 mm 3 mps 684 mmHg 87%
    18:00 -4°C° 0 mm 3 mps 684 mmHg 90%
    19:00 -4°C° 0 mm 3 mps 684 mmHg 90%
    20:00 -3°C° 0 mm 2 mps 684 mmHg 90%
    21:00 -3°C° 0 mm 2 mps 684 mmHg 89%
    22:00 -3°C° 0.1 mm 2 mps 684 mmHg 89%
    23:00 -3°C° 0.1 mm 2 mps 684 mmHg 89%

    Tomorrow, 24 February, Saturday

    Time Temperature Precipitation Wind Pressure Humidity
    00:00 -3°C° 0.1 mm 2 mps 684 mmHg 88%
    01:00 -3°C° 0.1 mm 2 mps 684 mmHg 89%
    02:00 -3°C° 0.1 mm 2 mps 684 mmHg 90%
    03:00 -2°C° 0.1 mm 2 mps 684 mmHg 90%
    04:00 -2°C° 0.1 mm 2 mps 684 mmHg 90%
    05:00 -2°C° 0.1 mm 3 mps 684 mmHg 90%
    06:00 -2°C° 0.1 mm 3 mps 684 mmHg 90%
    07:00 -1°C° 0 mm 3 mps 684 mmHg 89%
    08:00 0°C° 0 mm 3 mps 684 mmHg 87%
    09:00 +1°C° 0 mm 3 mps 684 mmHg 86%
    10:00 +2°C° 0 mm 3 mps 684 mmHg 85%
    11:00 +2°C° 0 mm 3 mps 685 mmHg 85%
    12:00 +3°C° 0 mm 3 mps 685 mmHg 84%
    13:00 +3°C° 0 mm 3 mps 684 mmHg 85%
    14:00 +3°C° 0 mm 3 mps 684 mmHg 86%
    15:00 +3°C° 0 mm 3 mps 684 mmHg 87%
    16:00 +2°C° 0 mm 3 mps 685 mmHg 89%
    17:00 +1°C° 0 mm 3 mps 685 mmHg 90%
    18:00 -1°C° 0 mm 3 mps 685 mmHg 91%
    19:00 -1°C° 0 mm 3 mps 685 mmHg 90%
    20:00 -2°C° 0 mm 3 mps 685 mmHg 90%
    21:00 -4°C° 0 mm 3 mps 685 mmHg 90%
    22:00 -4°C° 0 mm 3 mps 686 mmHg 90%
    23:00 -4°C° 0 mm 3 mps 686 mmHg 90%

    Day after tomorrow, 25 February, Sunday

    Time Temperature Precipitation Wind Pressure Humidity
    00:00 -5°C° 0 mm 3 mps 686 mmHg 90%
    01:00 -4°C° 0 mm 2 mps 686 mmHg 90%
    02:00 -4°C° 0 mm 2 mps 686 mmHg 90%
    03:00 -4°C° 0 mm 2 mps 686 mmHg 90%
    04:00 -4°C° 0 mm 2 mps 686 mmHg 90%
    05:00 -4°C° 0 mm 2 mps 686 mmHg 90%
    06:00 -5°C° 0 mm 2 mps 686 mmHg 90%
    07:00 -5°C° 0 mm 3 mps 686 mmHg 88%
    08:00 -5°C° 0 mm 3 mps 686 mmHg 86%
    09:00 -4°C° 0 mm 3 mps 687 mmHg 83%
    10:00 -4°C° 0 mm 4 mps 687 mmHg 81%
    11:00 -3°C° 0 mm 4 mps 687 mmHg 78%
    12:00 -3°C° 0 mm 4 mps 687 mmHg 75%
    13:00 -3°C° 0 mm 4 mps 687 mmHg 75%
    14:00 -5°C° 0 mm 5 mps 687 mmHg 74%
    15:00 -5°C° 0 mm 5 mps 686 mmHg 73%
    16:00 -7°C° 0 mm 5 mps 687 mmHg 76%
    17:00 -8°C° 0 mm 5 mps 687 mmHg 78%
    18:00 -11°C° 0 mm 5 mps 687 mmHg 81%
    19:00 -11°C° 0 mm 4 mps 687 mmHg 81%
    20:00 -12°C° 0 mm 4 mps 687 mmHg 81%
    21:00 -14°C° 0 mm 4 mps 688 mmHg 81%
    22:00 -14°C° 0 mm 4 mps 688 mmHg 81%
    23:00 -15°C° 0 mm 4 mps 687 mmHg 81%

    26 February, Monday

    Time Temperature Precipitation Wind Pressure Humidity
    00:00 -15°C° 0 mm 4 mps 687 mmHg 81%
    01:00 -16°C° 0 mm 4 mps 687 mmHg 81%
    02:00 -16°C° 0 mm 4 mps 687 mmHg 82%
    03:00 -16°C° 0 mm 4 mps 687 mmHg 83%
    04:00 -17°C° 0 mm 4 mps 687 mmHg 83%
    05:00 -17°C° 0 mm 4 mps 687 mmHg 83%
    06:00 -18°C° 0 mm 4 mps 687 mmHg 84%
    07:00 -16°C° 0 mm 4 mps 687 mmHg 79%
    08:00 -15°C° 0 mm 4 mps 687 mmHg 74%
    09:00 -14°C° 0 mm 4 mps 687 mmHg 69%
    10:00 -13°C° 0 mm 5 mps 687 mmHg 67%
    11:00 -12°C° 0 mm 5 mps 687 mmHg 64%
    12:00 -11°C° 0 mm 5 mps 687 mmHg 62%
    13:00 -11°C° 0 mm 5 mps 686 mmHg 63%
    14:00 -11°C° 0 mm 5 mps 686 mmHg 65%
    15:00 -12°C° 0 mm 5 mps 686 mmHg 66%
    16:00 -13°C° 0 mm 5 mps 686 mmHg 70%
    17:00 -14°C° 0 mm 4 mps 686 mmHg 74%
    18:00 -15°C° 0 mm 4 mps 686 mmHg 78%
    19:00 -16°C° 0 mm 4 mps 686 mmHg 79%
    20:00 -16°C° 0 mm 3 mps 686 mmHg 80%
    21:00 -16°C° 0 mm 3 mps 686 mmHg 81%
    22:00 -16°C° 0 mm 3 mps 685 mmHg 80%
    23:00 -17°C° 0 mm 3 mps 685 mmHg 80%

    27 February, Tuesday

    Time Temperature Precipitation Wind Pressure Humidity
    00:00 -17°C° 0 mm 3 mps 685 mmHg 80%
    01:00 -17°C° 0 mm 3 mps 685 mmHg 80%
    02:00 -17°C° 0 mm 3 mps 685 mmHg 81%
    03:00 -17°C° 0 mm 3 mps 684 mmHg 82%
    04:00 -18°C° 0 mm 3 mps 684 mmHg 82%
    05:00 -18°C° 0 mm 3 mps 684 mmHg 83%
    06:00 -18°C° 0 mm 3 mps 684 mmHg 83%
    07:00 -16°C° 0 mm 3 mps 684 mmHg 79%
    08:00 -15°C° 0 mm 3 mps 684 mmHg 75%
    09:00 -13°C° 0 mm 3 mps 685 mmHg 70%
    10:00 -12°C° 0 mm 3 mps 684 mmHg 68%
    11:00 -10°C° 0 mm 3 mps 684 mmHg 66%
    12:00 -9°C° 0 mm 3 mps 684 mmHg 64%
    13:00 -9°C° 0 mm 3 mps 684 mmHg 65%
    14:00 -9°C° 0 mm 3 mps 684 mmHg 67%
    15:00 -9°C° 0 mm 3 mps 684 mmHg 68%
    16:00 -10°C° 0 mm 2 mps 684 mmHg 73%
    17:00 -12°C° 0 mm 2 mps 684 mmHg 77%
    18:00 -13°C° 0 mm 2 mps 684 mmHg 82%
    19:00 -14°C° 0 mm 2 mps 684 mmHg 83%
    20:00 -14°C° 0 mm 2 mps 684 mmHg 83%
    21:00 -15°C° 0 mm 2 mps 684 mmHg 84%
    22:00 -15°C° 0 mm 2 mps 684 mmHg 83%
    23:00 -13°C° 0 mm 1 mps 684 mmHg 82%

    28 February, Wednesday

    Time Temperature Precipitation Wind Pressure Humidity
    00:00 -13°C° 0 mm 1 mps 684 mmHg 81%
    01:00 -13°C° 0 mm 1 mps 684 mmHg 81%
    02:00 -14°C° 0 mm 1 mps 684 mmHg 81%
    03:00 -14°C° 0 mm 1 mps 683 mmHg 81%
    04:00 -14°C° 0 mm 1 mps 683 mmHg 80%
    05:00 -14°C° 0 mm 1 mps 683 mmHg 80%
    06:00 -14°C° 0 mm 1 mps 683 mmHg 80%
    07:00 -12°C° 0 mm 1 mps 683 mmHg 74%
    08:00 -10°C° 0 mm 1 mps 684 mmHg 67%
    09:00 -7°C° 0 mm 1 mps 684 mmHg 61%
    10:00 -6°C° 0 mm 1 mps 684 mmHg 57%
    11:00 -3°C° 0 mm 1 mps 684 mmHg 53%
    12:00 -2°C° 0 mm 1 mps 683 mmHg 49%
    13:00 -2°C° 0 mm 1 mps 683 mmHg 51%
    14:00 -4°C° 0 mm 2 mps 682 mmHg 52%
    15:00 -4°C° 0 mm 2 mps 682 mmHg 54%
    16:00 -5°C° 0 mm 2 mps 681 mmHg 59%
    17:00 -6°C° 0 mm 2 mps 681 mmHg 65%
    18:00 -8°C° 0 mm 3 mps 681 mmHg 70%
    19:00 -8°C° 0.1 mm 3 mps 680 mmHg 73%
    20:00 -8°C° 0.1 mm 3 mps 680 mmHg 75%
    21:00 -8°C° 0.1 mm 3 mps 680 mmHg 77%
    22:00 -8°C° 0.4 mm 3 mps 679 mmHg 80%
    23:00 -7°C° 0.4 mm 3 mps 679 mmHg 83%
    Show more